Hourly Data Report for November 01, 2019

All times are specified in Local Standard Time (LST). Add 1 hour to adjust for Daylight Saving Time where and when it is observed.

QUALICUM BEACH AIRPORT
BRITISH COLUMBIA
Current Station Operator: ECCC - MSC

49°20'14.000" N
124°23'38.000" W
58.20 m
1026562
71766
VOQ

Download Data

Hourly Data (November 2019)
Hourly Data Report for November 1, 2019
TIME Temp Definition
°C
Dew Point Definition
°C
Rel Hum Definition
%
Wind Dir Definition
10's deg

Wind Spd Definition
km/h
Visibility Definition
km
Stn Press Definition
kPa
Hmdx Definition


Wind Chill Definition


Weather Definition


00:00 6.7 5.3 91 31 2   102.50     LegendNANA
01:00 7.0 5.6 91 17 1   102.51     LegendNANA
02:00 6.7 5.5 92 0 1   102.55     LegendNANA
03:00 6.2 5.1 93 0 1   102.56     LegendNANA
04:00 5.6 4.7 94 28 2   102.53     LegendNANA
05:00 4.5 3.9 96 24 2   102.54     LegendNANA
06:00 4.1 3.6 97 26 2   102.55     LegendNANA
07:00 3.5 3.1 97 25 2   102.58     LegendNANA
08:00 3.9 3.5 97 24 2   102.61     LegendNANA
09:00 6.7 6.2 96 0 1   102.62     LegendNANA
10:00 8.5 6.7 88 31 7   102.62     LegendNANA
11:00 8.6 6.8 88 32 5   102.65     LegendNANA
12:00 9.3 5.9 79 32 10   102.60     LegendNANA
13:00 9.2 6.1 81 35 5   102.53     LegendNANA
14:00 9.7 6.3 79 32 9   102.51     LegendNANA
15:00 9.5 6.2 80 33 10   102.48     LegendNANA
16:00 8.9 5.9 81 32 9   102.45     LegendNANA
17:00 7.2 5.3 87 29 3   102.42     LegendNANA
18:00 5.6 4.6 93 27 2   102.36     LegendNANA
19:00 4.7 4.0 95 24 2   102.36     LegendNANA
20:00 3.9 3.3 96 23 3   102.34     LegendNANA
21:00 3.4 3.0 97 0 1   102.32     LegendNANA
22:00 2.9 2.5 97 25 2   102.32     LegendNANA
23:00 3.1 2.7 97 28 2   102.30     LegendNANA

Notes on Data Quality.

Legend

  • E = Estimated
  • M = Missing
  • NA = Not Available
Date modified: